This is the latest recevied weather packets stored in our database for station/object KD8NVS-13. If no packets are shown the sender has not sent any weather packets the latest 10 day(s).
| Time | Temp. | Humidity | Pressure | Rain* | Wind** | Luminosity | Snow |
|---|---|---|---|---|---|---|---|
| 1777935367 | 23.89° C | 51% | 996.6 hPa | 0 mm | - | 121 W/m² | - |
| 1777935063 | 23.33° C | 53% | 997 hPa | 0 mm | - | 175 W/m² | - |
| 1777934760 | 23.33° C | 53% | 997 hPa | 0 mm | - | 175 W/m² | - |
| 1777934457 | 22.78° C | 52% | 997 hPa | 0 mm | - | 183 W/m² | - |
| 1777934155 | 22.78° C | 55% | 996.6 hPa | 0 mm | - | 126 W/m² | - |
| 1777933850 | 22.78° C | 54% | 996.6 hPa | 0 mm | - | 161 W/m² | - |
| 1777933547 | 23.33° C | 53% | 997 hPa | 0 mm | - | 215 W/m² | - |
| 1777933244 | 22.78° C | 55% | 997 hPa | 0 mm | - | 202 W/m² | - |
| 1777932941 | 22.78° C | 54% | 997 hPa | 0 mm | - | 218 W/m² | - |
| 1777932638 | 22.22° C | 57% | 997 hPa | 0 mm | - | 201 W/m² | - |
| 1777932335 | 21.67° C | 57% | 997 hPa | 0 mm | - | 254 W/m² | - |
| 1777932032 | 21.11° C | 59% | 997.3 hPa | 0 mm | - | 271 W/m² | - |
| 1777931728 | 21.11° C | 60% | 997.6 hPa | 0 mm | - | 150 W/m² | - |
| 1777931426 | 20.56° C | 59% | 997.3 hPa | 0 mm | - | 131 W/m² | - |
| 1777931122 | 20.56° C | 60% | 997.3 hPa | 0 mm | - | 124 W/m² | - |
| 1777930818 | 20.56° C | 61% | 997.6 hPa | 0 mm | - | 92 W/m² | - |
| 1777930514 | 21.11° C | 60% | 997.3 hPa | 0 mm | - | 101 W/m² | - |
| 1777930212 | 21.11° C | 61% | 997.3 hPa | 0 mm | - | 197 W/m² | - |
| 1777929907 | 21.11° C | 60% | 997.3 hPa | 0 mm | - | 147 W/m² | - |
| 1777929605 | 20.56° C | 61% | 997 hPa | 0 mm | - | 197 W/m² | - |
| 1777929301 | 20.56° C | 63% | 997 hPa | 0 mm | - | 208 W/m² | - |
| 1777928999 | 20.56° C | 62% | 997 hPa | 0 mm | - | 119 W/m² | - |
| 1777928696 | 20.56° C | 61% | 997 hPa | 0 mm | - | 128 W/m² | - |
| 1777928392 | 20.56° C | 61% | 997 hPa | 0 mm | - | 73 W/m² | - |
| 1777928090 | 20.56° C | 60% | 997 hPa | 0 mm | - | 91 W/m² | - |
* Rain latest hour (hover to see other rain measurements)
** Current wind speed in m/s (hover to see current wind gust speed)